| time (UTC) | temp C | wind direction | speed KPH | gust KPH | rain 1hr cm | rain 24hr cm | rain mn cm | humidity % | barometer mb |
| 20260506164515 | 13 | 326 | 8.0 | 16.1 | 0.05 | 0.05 | 0.05 | 88 | 1014.8 |
| 20260506163016 | 13 | 340 | 4.8 | 14.5 | 0.03 | 0.03 | 0.03 | 89 | 1014.8 |
| 20260506161514 | 13 | 22 | 3.2 | 8.0 | 0.03 | 0.03 | 0.03 | 89 | 1015.1 |
| 20260506160020 | 13 | 329 | 1.6 | 9.7 | 0.00 | 0.00 | 0.00 | 88 | 1015.5 |
| 20260506154517 | 12 | 5 | 8.0 | 16.1 | 0.00 | 0.00 | 0.00 | 87 | 1014.3 |
| 20260506153014 | 12 | 333 | 8.0 | 14.5 | 0.00 | 0.00 | 0.00 | 87 | 1014.2 |
| 20260506151517 | 12 | 340 | 6.4 | 12.9 | 0.00 | 0.00 | 0.00 | 88 | 1013.9 |
| 20260506150009 | 12 | 352 | 6.4 | 19.3 | 0.00 | 0.00 | 0.00 | 87 | 1013.7 |
| 20260506144515 | 12 | 331 | 4.8 | 14.5 | 0.00 | 0.00 | 0.00 | 88 | 1013.7 |
| 20260506143017 | 12 | 352 | 9.7 | 16.1 | 0.00 | 0.00 | 0.00 | 87 | 1013.3 |
| 20260506141515 | 12 | 336 | 9.7 | 17.7 | 0.00 | 0.00 | 0.00 | 87 | 1013.1 |
| 20260506140018 | 12 | 301 | 11.3 | 19.3 | 0.00 | 0.00 | 0.00 | 86 | 1012.9 |
| 20260506134509 | 12 | 5 | 4.8 | 14.5 | 0.00 | 0.00 | 0.00 | 86 | 1012.9 |
| 20260506133018 | 12 | 5 | 8.0 | 19.3 | 0.00 | 0.00 | 0.00 | 85 | 1012.9 |
| 20260506131537 | 12 | 335 | 9.7 | 17.7 | 0.00 | 0.00 | 0.00 | 85 | 1012.9 |
| 20260506130033 | 12 | 352 | 12.9 | 22.5 | 0.00 | 0.00 | 0.00 | 84 | 1012.9 |
| 20260506124520 | 12 | 348 | 8.0 | 16.1 | 0.00 | 0.00 | 0.00 | 85 | 1012.9 |
| 20260506123016 | 12 | 314 | 8.0 | 17.7 | 0.00 | 0.00 | 0.00 | 84 | 1012.3 |
| 20260506121522 | 12 | 348 | 6.4 | 17.7 | 0.00 | 0.00 | 0.00 | 84 | 1012.1 |
| 20260506120021 | 12 | 351 | 8.0 | 17.7 | 0.00 | 0.00 | 0.00 | 83 | 1011.7 |
| 20260506114523 | 13 | 286 | 3.2 | 17.7 | 0.00 | 0.00 | 0.00 | 82 | 1011.4 |
| 20260506113024 | 13 | 329 | 8.0 | 22.5 | 0.00 | 0.00 | 0.00 | 80 | 1011.2 |
| 20260506111518 | 13 | 321 | 3.2 | 12.9 | 0.00 | 0.00 | 0.00 | 80 | 1010.7 |
| 20260506110020 | 13 | 329 | 4.8 | 16.1 | 0.00 | 0.00 | 0.00 | 81 | 1010.4 |
| 20260506104521 | 13 | 10 | 9.7 | 16.1 | 0.00 | 0.00 | 0.00 | 81 | 1010.2 |
| 20260506103032 | 14 | 324 | 6.4 | 12.9 | 0.00 | 0.00 | 0.00 | 80 | 1010.1 |
| 20260506101516 | 14 | 331 | 4.8 | 9.7 | 0.00 | 0.00 | 0.00 | 80 | 1010.0 |
| 20260506100027 | 14 | 333 | 4.8 | 14.5 | 0.00 | 0.00 | 0.00 | 79 | 1010.0 |
| 20260506094530 | 14 | 322 | 4.8 | 16.1 | 0.00 | 0.00 | 0.00 | 79 | 1009.9 |
| 20260506093030 | 14 | 20 | 4.8 | 14.5 | 0.00 | 0.00 | 0.00 | 79 | 1009.7 |
| 20260506091527 | 14 | 352 | 6.4 | 16.1 | 0.00 | 0.00 | 0.00 | 79 | 1009.4 |
| 20260506090019 | 14 | 327 | 3.2 | 12.9 | 0.00 | 0.00 | 0.00 | 80 | 1009.3 |
| 20260506084504 | 14 | 350 | 6.4 | 12.9 | 0.00 | 0.00 | 0.00 | 81 | 1009.4 |
| 20260506083008 | 15 | 12 | 4.8 | 11.3 | 0.00 | 0.00 | 0.00 | 81 | 1009.3 |
| 20260506081512 | 15 | 324 | 4.8 | 12.9 | 0.00 | 0.00 | 0.00 | 81 | 1009.4 |
| 20260506073008 | 16 | 314 | 4.8 | 11.3 | 0.00 | 0.00 | 0.00 | 80 | 1009.3 |
| 20260506071511 | 16 | 326 | 6.4 | 12.9 | 0.00 | 0.00 | 0.00 | 80 | 1009.1 |
| 20260506061509 | 16 | 11 | 6.4 | 14.5 | 0.00 | 0.00 | 0.00 | 80 | 1009.1 |
| 20260506044513 | 20 | 304 | 4.8 | 17.7 | 0.00 | 0.00 | 0.00 | 78 | 1008.5 |
| 20260506043020 | 21 | 339 | 8.0 | 16.1 | 0.00 | 0.00 | 0.00 | 78 | 1008.1 |
| 20260506041522 | 22 | 352 | 6.4 | 12.9 | 0.00 | 0.00 | 0.00 | 78 | 1007.7 |
| 20260506040027 | 23 | 11 | 6.4 | 19.3 | 0.00 | 0.00 | 0.00 | 82 | 1007.7 |
| 20260506034513 | 23 | 313 | 0.0 | 3.2 | 0.00 | 0.00 | 0.00 | 85 | 1007.4 |
| 20260506033017 | 23 | 264 | 0.0 | 3.2 | 0.00 | 0.00 | 0.00 | 86 | 1007.3 |
| 20260506031522 | 23 | 333 | 0.0 | 3.2 | 0.00 | 0.00 | 0.00 | 85 | 1006.8 |
| 20260506030034 | 24 | 329 | 0.0 | 3.2 | 0.00 | 0.00 | 0.00 | 84 | 1006.3 |
| 20260506024523 | 24 | 281 | 0.0 | 0.0 | 0.00 | 0.00 | 0.00 | 83 | 1006.1 |
| 20260506023015 | 24 | 178 | 0.0 | 1.6 | 0.00 | 0.00 | 0.00 | 82 | 1005.9 |
| 20260506021522 | 24 | 165 | 0.0 | 3.2 | 0.00 | 0.00 | 0.00 | 82 | 1005.7 |
| 20260506020026 | 25 | 259 | 1.6 | 4.8 | 0.00 | 0.00 | 0.00 | 81 | 1005.8 |
| 20260506014532 | 24 | 201 | 1.6 | 9.7 | 0.00 | 0.00 | 0.00 | 81 | 1005.0 |
| 20260506013013 | 25 | 133 | 1.6 | 4.8 | 0.00 | 0.00 | 0.00 | 81 | 1005.4 |
| 20260506011520 | 25 | 202 | 1.6 | 6.4 | 0.00 | 0.00 | 0.00 | 79 | 1005.5 |
| 20260506010030 | 25 | 220 | 1.6 | 8.0 | 0.00 | 0.00 | 0.00 | 79 | 1005.3 |
| 20260506004527 | 25 | 175 | 1.6 | 4.8 | 0.00 | 0.00 | 0.00 | 78 | 1005.1 |
| 20260506003015 | 26 | 227 | 3.2 | 8.0 | 0.00 | 0.00 | 0.00 | 76 | 1005.2 |
| 20260506001518 | 26 | 221 | 3.2 | 9.7 | 0.00 | 0.00 | 0.00 | 75 | 1005.0 |
| 20260506000023 | 26 | 198 | 3.2 | 9.7 | 0.00 | 0.00 | 0.00 | 75 | 1005.0 |
| 20260505234530 | 26 | 209 | 4.8 | 9.7 | 0.00 | 0.00 | 0.00 | 74 | 1004.9 |
| 20260505233026 | 27 | 260 | 1.6 | 14.5 | 0.00 | 0.00 | 0.00 | 74 | 1004.9 |
| 20260505231516 | 27 | 224 | 3.2 | 14.5 | 0.00 | 0.00 | 0.00 | 73 | 1004.8 |
| 20260505230041 | 27 | 146 | 4.8 | 14.5 | 0.00 | 0.00 | 0.00 | 73 | 1004.8 |
| 20260505224524 | 27 | 198 | 4.8 | 16.1 | 0.00 | 0.00 | 0.00 | 73 | 1004.7 |
| 20260505223025 | 27 | 234 | 4.8 | 16.1 | 0.00 | 0.00 | 0.00 | 72 | 1004.6 |
| 20260505221512 | 27 | 169 | 8.0 | 14.5 | 0.00 | 0.00 | 0.00 | 73 | 1004.8 |
| 20260505220029 | 28 | 225 | 9.7 | 20.9 | 0.00 | 0.00 | 0.00 | 68 | 1004.9 |
| 20260505214505 | 27 | 206 | 9.7 | 27.4 | 0.00 | 0.00 | 0.00 | 71 | 1004.9 |
| 20260505213010 | 27 | 194 | 8.0 | 20.9 | 0.00 | 0.00 | 0.00 | 71 | 1004.9 |
| 20260505211514 | 27 | 151 | 12.9 | 24.1 | 0.00 | 0.00 | 0.00 | 71 | 1004.9 |
| 20260505210015 | 28 | 200 | 9.7 | 24.1 | 0.00 | 0.00 | 0.00 | 70 | 1005.0 |
| 20260505204502 | 27 | 188 | 6.4 | 19.3 | 0.00 | 0.00 | 0.00 | 72 | 1005.1 |
| 20260505203003 | 27 | 209 | 8.0 | 22.5 | 0.00 | 0.00 | 0.00 | 71 | 1005.2 |
| 20260505201513 | 27 | 192 | 12.9 | 24.1 | 0.00 | 0.00 | 0.00 | 72 | 1005.3 |
| 20260505200015 | 27 | 230 | 6.4 | 25.7 | 0.00 | 0.00 | 0.00 | 73 | 1005.3 |
| 20260505184517 | 26 | 161 | 6.4 | 22.5 | 0.00 | 0.00 | 0.00 | 73 | 1005.6 |
| 20260505180043 | 26 | 215 | 14.5 | 32.2 | 0.00 | 0.00 | 0.00 | 71 | 1006.0 |
| 20260505174537 | 26 | 198 | 9.7 | 27.4 | 0.00 | 0.00 | 0.00 | 73 | 1006.2 |
| 20260505173021 | 26 | 239 | 11.3 | 35.4 | 0.00 | 0.00 | 0.00 | 73 | 1006.4 |
| 20260505171530 | 25 | 201 | 9.7 | 29.0 | 0.00 | 0.00 | 0.00 | 74 | 1006.1 |
| 20260505170007 | 25 | 201 | 11.3 | 35.4 | 0.00 | 0.00 | 0.00 | 76 | 1006.1 |